Time,TemperatureF,DewpointF,PressureIn,WindDirection,WindDirectionDegrees,WindSpeedMPH,WindSpeedGustMPH,Humidity,HourlyPrecipIn,Conditions,Clouds,dailyrainin,SolarRadiationWatts/m^2,SoftwareType,DateUTC
2013-06-30 00:04:00,68.2,57.2,29.80,North,350,0.0,0.0,68,0.00,,,0.00,0,Wunderground v.1.15,2013-06-30 05:04:00,
2013-06-30 00:14:00,68.2,57.2,29.81,North,350,0.0,0.0,68,0.00,,,0.00,0,Wunderground v.1.15,2013-06-30 05:14:00,
2013-06-30 00:20:00,68.0,57.4,29.81,North,350,0.0,0.0,69,0.00,,,0.00,0,Wunderground v.1.15,2013-06-30 05:20:00,
2013-06-30 00:30:00,67.1,57.4,29.81,North,350,0.0,0.0,71,0.00,,,0.00,0,Wunderground v.1.15,2013-06-30 05:30:00,
2013-06-30 00:39:00,67.0,57.3,29.81,North,350,0.0,0.0,71,0.00,,,0.00,0,Wunderground v.1.15,2013-06-30 05:39:00,
2013-06-30 00:44:00,66.7,57.4,29.81,North,350,0.0,0.0,72,0.00,,,0.00,0,Wunderground v.1.15,2013-06-30 05:44:00,
2013-06-30 00:55:00,66.0,57.5,29.81,North,350,0.0,0.0,74,0.00,,,0.00,0,Wunderground v.1.15,2013-06-30 05:55:00,
2013-06-30 01:05:00,66.1,57.6,29.81,North,350,0.0,0.0,74,0.00,,,0.00,0,Wunderground v.1.15,2013-06-30 06:05:00,
2013-06-30 01:14:00,65.8,58.0,29.82,North,350,0.0,0.0,76,0.00,,,0.00,0,Wunderground v.1.15,2013-06-30 06:14:00,
2013-06-30 01:19:00,65.8,58.0,29.82,North,350,0.0,0.0,76,0.00,,,0.00,0,Wunderground v.1.15,2013-06-30 06:19:00,
2013-06-30 01:25:00,65.6,57.8,29.82,North,350,0.0,0.0,76,0.00,,,0.00,0,Wunderground v.1.15,2013-06-30 06:25:00,
2013-06-30 01:30:00,65.4,58.0,29.83,North,350,0.0,0.0,77,0.00,,,0.00,0,Wunderground v.1.15,2013-06-30 06:30:00,
2013-06-30 01:40:00,65.2,57.8,29.83,North,350,0.0,0.0,77,0.00,,,0.00,0,Wunderground v.1.15,2013-06-30 06:40:00,
2013-06-30 01:49:00,64.5,57.8,29.83,North,350,0.0,0.0,79,0.00,,,0.00,0,Wunderground v.1.15,2013-06-30 06:49:00,
2013-06-30 01:55:00,64.3,57.6,29.83,North,350,0.0,0.0,79,0.00,,,0.00,0,Wunderground v.1.15,2013-06-30 06:55:00,
2013-06-30 02:05:00,64.2,57.5,29.83,North,350,0.0,0.0,79,0.00,,,0.00,0,Wunderground v.1.15,2013-06-30 07:05:00,
2013-06-30 02:15:00,64.1,57.5,29.83,North,350,0.0,0.0,79,0.00,,,0.00,0,Wunderground v.1.15,2013-06-30 07:15:00,
2013-06-30 02:24:00,63.9,57.6,29.83,North,350,0.0,0.0,80,0.00,,,0.00,0,Wunderground v.1.15,2013-06-30 07:24:00,
2013-06-30 02:30:00,64.0,57.7,29.83,North,350,0.0,0.0,80,0.00,,,0.00,0,Wunderground v.1.15,2013-06-30 07:30:00,
2013-06-30 02:40:00,64.0,57.4,29.83,North,350,0.0,0.0,79,0.00,,,0.00,0,Wunderground v.1.15,2013-06-30 07:40:00,
2013-06-30 02:50:00,63.6,57.3,29.84,North,350,0.0,0.0,80,0.00,,,0.00,0,Wunderground v.1.15,2013-06-30 07:50:00,
2013-06-30 02:59:00,63.6,57.3,29.84,North,350,0.0,0.0,80,0.00,,,0.00,0,Wunderground v.1.15,2013-06-30 07:59:00,
2013-06-30 03:04:00,63.5,57.2,29.84,North,350,0.0,0.0,80,0.00,,,0.00,0,Wunderground v.1.15,2013-06-30 08:04:00,
2013-06-30 03:09:00,63.4,57.5,29.84,North,350,0.0,0.0,81,0.00,,,0.00,0,Wunderground v.1.15,2013-06-30 08:09:00,
2013-06-30 03:14:00,63.3,57.4,29.84,North,350,0.0,0.0,81,0.00,,,0.00,0,Wunderground v.1.15,2013-06-30 08:14:00,
2013-06-30 03:25:00,63.0,57.4,29.84,North,350,0.0,0.0,82,0.00,,,0.00,0,Wunderground v.1.15,2013-06-30 08:25:00,
2013-06-30 03:35:00,62.6,57.4,29.84,North,350,0.0,0.0,83,0.00,,,0.00,0,Wunderground v.1.15,2013-06-30 08:35:00,
2013-06-30 03:39:00,62.4,57.2,29.84,North,350,0.0,0.0,83,0.00,,,0.00,0,Wunderground v.1.15,2013-06-30 08:39:00,
2013-06-30 03:49:00,62.4,57.2,29.84,North,350,0.0,0.0,83,0.00,,,0.00,0,Wunderground v.1.15,2013-06-30 08:49:00,
2013-06-30 03:55:00,62.5,57.3,29.84,North,350,0.0,0.0,83,0.00,,,0.00,0,Wunderground v.1.15,2013-06-30 08:55:00,
2013-06-30 04:05:00,62.5,57.3,29.85,North,350,0.0,0.0,83,0.00,,,0.00,0,Wunderground v.1.15,2013-06-30 09:05:00,
2013-06-30 04:14:00,62.2,57.0,29.85,North,350,0.0,0.0,83,0.00,,,0.00,0,Wunderground v.1.15,2013-06-30 09:14:00,
2013-06-30 04:25:00,62.1,57.2,29.85,North,350,0.0,0.0,84,0.00,,,0.00,0,Wunderground v.1.15,2013-06-30 09:25:00,
2013-06-30 04:35:00,62.1,57.2,29.85,North,350,0.0,0.0,84,0.00,,,0.00,0,Wunderground v.1.15,2013-06-30 09:35:00,
2013-06-30 04:45:00,62.0,57.1,29.85,North,350,0.0,0.0,84,0.00,,,0.00,0,Wunderground v.1.15,2013-06-30 09:45:00,
2013-06-30 04:54:00,61.6,56.7,29.85,North,350,0.0,0.0,84,0.00,,,0.00,0,Wunderground v.1.15,2013-06-30 09:54:00,
2013-06-30 04:59:00,61.6,56.7,29.85,North,350,0.0,0.0,84,0.00,,,0.00,0,Wunderground v.1.15,2013-06-30 09:59:00,
2013-06-30 05:05:00,61.4,56.5,29.85,North,350,0.0,0.0,84,0.00,,,0.00,0,Wunderground v.1.15,2013-06-30 10:05:00,
2013-06-30 05:15:00,61.3,56.8,29.85,North,350,0.0,0.0,85,0.00,,,0.00,0,Wunderground v.1.15,2013-06-30 10:15:00,
2013-06-30 05:24:00,61.3,56.8,29.85,North,350,0.0,0.0,85,0.00,,,0.00,0,Wunderground v.1.15,2013-06-30 10:24:00,
2013-06-30 05:34:00,61.2,56.3,29.86,North,350,0.0,0.0,84,0.00,,,0.00,0,Wunderground v.1.15,2013-06-30 10:34:00,
2013-06-30 05:40:00,61.1,56.2,29.86,North,350,0.0,0.0,84,0.00,,,0.00,0,Wunderground v.1.15,2013-06-30 10:40:00,
2013-06-30 05:50:00,60.9,56.4,29.86,North,350,0.0,0.0,85,0.00,,,0.00,0,Wunderground v.1.15,2013-06-30 10:50:00,
2013-06-30 05:59:00,60.8,56.3,29.86,North,350,0.0,0.0,85,0.00,,,0.00,0,Wunderground v.1.15,2013-06-30 10:59:00,
2013-06-30 06:09:00,60.6,56.1,29.86,North,350,0.0,0.0,85,0.00,,,0.00,9,Wunderground v.1.15,2013-06-30 11:09:00,
2013-06-30 06:15:00,60.5,56.0,29.86,North,350,0.0,0.0,85,0.00,,,0.00,14,Wunderground v.1.15,2013-06-30 11:15:00,
2013-06-30 06:20:00,60.4,55.9,29.86,North,350,0.0,0.0,85,0.00,,,0.00,18,Wunderground v.1.15,2013-06-30 11:20:00,
2013-06-30 06:29:00,60.3,56.1,29.88,North,350,0.0,0.0,86,0.00,,,0.00,28,Wunderground v.1.15,2013-06-30 11:29:00,
2013-06-30 06:39:00,60.3,56.1,29.88,North,350,0.0,0.0,86,0.00,,,0.00,39,Wunderground v.1.15,2013-06-30 11:39:00,
2013-06-30 06:50:00,60.4,56.2,29.88,North,350,0.0,0.0,86,0.00,,,0.00,49,Wunderground v.1.15,2013-06-30 11:50:00,
2013-06-30 06:59:00,60.6,56.4,29.88,North,350,0.0,0.0,86,0.00,,,0.00,72,Wunderground v.1.15,2013-06-30 11:59:00,
2013-06-30 07:09:00,60.7,56.5,29.88,North,350,0.0,0.0,86,0.00,,,0.00,74,Wunderground v.1.15,2013-06-30 12:09:00,
2013-06-30 07:19:00,60.9,56.7,29.89,North,350,0.0,0.0,86,0.00,,,0.00,105,Wunderground v.1.15,2013-06-30 12:19:00,
2013-06-30 07:25:00,61.0,56.8,29.89,North,350,0.0,0.0,86,0.00,,,0.00,93,Wunderground v.1.15,2013-06-30 12:25:00,
2013-06-30 07:35:00,61.3,56.8,29.89,North,350,0.0,0.0,85,0.00,,,0.00,98,Wunderground v.1.15,2013-06-30 12:35:00,
2013-06-30 07:44:00,61.6,57.0,29.90,North,350,0.0,0.0,85,0.00,,,0.00,130,Wunderground v.1.15,2013-06-30 12:44:00,
2013-06-30 07:54:00,62.1,57.5,29.90,North,350,0.0,0.0,85,0.00,,,0.00,186,Wunderground v.1.15,2013-06-30 12:54:00,
2013-06-30 08:00:00,62.6,57.4,29.90,North,350,0.0,0.0,83,0.00,,,0.00,204,Wunderground v.1.15,2013-06-30 13:00:00,
2013-06-30 08:10:00,63.1,57.9,29.90,North,351,0.0,0.0,83,0.00,,,0.00,202,Wunderground v.1.15,2013-06-30 13:10:00,
2013-06-30 08:15:00,63.5,57.9,29.91,North,351,0.0,0.0,82,0.00,,,0.00,218,Wunderground v.1.15,2013-06-30 13:15:00,
2013-06-30 08:24:00,64.5,58.2,29.91,North,355,0.0,0.0,80,0.00,,,0.00,253,Wunderground v.1.15,2013-06-30 13:24:00,
2013-06-30 08:30:00,64.9,58.2,29.91,North,355,0.0,0.0,79,0.00,,,0.00,216,Wunderground v.1.15,2013-06-30 13:30:00,
2013-06-30 08:40:00,65.0,58.0,29.91,North,355,0.0,0.0,78,0.00,,,0.00,193,Wunderground v.1.15,2013-06-30 13:40:00,
2013-06-30 08:49:00,65.1,57.7,29.92,North,9,0.0,0.0,77,0.00,,,0.00,232,Wunderground v.1.15,2013-06-30 13:49:00,
2013-06-30 08:54:00,65.2,57.4,29.92,North,350,0.0,0.0,76,0.00,,,0.00,223,Wunderground v.1.15,2013-06-30 13:54:00,
2013-06-30 09:05:00,66.0,57.5,29.92,NW,326,0.0,0.0,74,0.00,,,0.00,469,Wunderground v.1.15,2013-06-30 14:05:00,
2013-06-30 09:15:00,66.4,57.5,29.92,NNW,327,0.0,0.0,73,0.00,,,0.00,288,Wunderground v.1.15,2013-06-30 14:15:00,
2013-06-30 09:20:00,66.6,57.7,29.92,North,349,0.0,4.0,73,0.00,,,0.00,323,Wunderground v.1.15,2013-06-30 14:20:00,
2013-06-30 09:29:00,67.3,58.0,29.92,North,350,0.0,0.0,72,0.00,,,0.00,348,Wunderground v.1.15,2013-06-30 14:29:00,
2013-06-30 09:40:00,68.1,57.5,29.92,North,350,0.0,0.0,69,0.00,,,0.00,524,Wunderground v.1.15,2013-06-30 14:40:00,
2013-06-30 09:50:00,68.8,57.8,29.92,North,350,0.0,0.0,68,0.00,,,0.00,441,Wunderground v.1.15,2013-06-30 14:50:00,
2013-06-30 09:59:00,68.8,57.0,29.91,NNW,343,0.0,0.0,66,0.00,,,0.00,452,Wunderground v.1.15,2013-06-30 14:59:00,
2013-06-30 10:09:00,69.3,56.6,29.91,NNW,340,0.0,0.0,64,0.00,,,0.00,260,Wunderground v.1.15,2013-06-30 15:09:00,
2013-06-30 10:15:00,69.1,57.3,29.92,NNW,340,0.0,0.0,66,0.00,,,0.00,633,Wunderground v.1.15,2013-06-30 15:15:00,
2013-06-30 10:25:00,70.4,56.3,29.92,NNW,342,0.0,3.0,61,0.00,,,0.00,671,Wunderground v.1.15,2013-06-30 15:25:00,
2013-06-30 10:34:00,70.9,57.7,29.92,North,360,0.0,0.0,63,0.00,,,0.00,664,Wunderground v.1.15,2013-06-30 15:34:00,
2013-06-30 10:45:00,70.8,57.1,29.93,North,355,0.0,0.0,62,0.00,,,0.00,575,Wunderground v.1.15,2013-06-30 15:45:00,
2013-06-30 10:55:00,71.2,56.1,29.93,North,360,0.0,0.0,59,0.00,,,0.00,686,Wunderground v.1.15,2013-06-30 15:55:00,
2013-06-30 11:04:00,71.8,57.6,29.93,ENE,58,0.0,0.0,61,0.00,,,0.00,680,Wunderground v.1.15,2013-06-30 16:04:00,
2013-06-30 11:14:00,72.3,56.7,29.93,NNW,344,1.0,1.0,58,0.00,,,0.00,703,Wunderground v.1.15,2013-06-30 16:14:00,
2013-06-30 11:25:00,72.6,56.5,29.93,North,360,0.0,1.0,57,0.00,,,0.00,728,Wunderground v.1.15,2013-06-30 16:25:00,
2013-06-30 11:35:00,72.9,57.3,29.93,NNE,24,0.0,1.0,58,0.00,,,0.00,747,Wunderground v.1.15,2013-06-30 16:35:00,
2013-06-30 11:44:00,73.2,56.1,29.93,North,9,1.0,1.0,55,0.00,,,0.00,700,Wunderground v.1.15,2013-06-30 16:44:00,
2013-06-30 11:54:00,73.0,56.4,29.93,NNW,339,2.0,3.0,56,0.00,,,0.00,758,Wunderground v.1.15,2013-06-30 16:54:00,
2013-06-30 12:00:00,73.3,56.2,29.93,NNW,346,2.0,2.0,55,0.00,,,0.00,740,Wunderground v.1.15,2013-06-30 17:00:00,
2013-06-30 12:10:00,73.8,56.6,29.93,NNW,335,1.0,1.0,55,0.00,,,0.00,782,Wunderground v.1.15,2013-06-30 17:10:00,
2013-06-30 12:19:00,73.8,56.1,29.93,NNW,348,1.0,1.0,54,0.00,,,0.00,816,Wunderground v.1.15,2013-06-30 17:19:00,
2013-06-30 12:29:00,74.5,56.2,29.93,North,349,0.0,0.0,53,0.00,,,0.00,900,Wunderground v.1.15,2013-06-30 17:29:00,
2013-06-30 12:35:00,74.9,56.1,29.93,NNE,26,1.0,1.0,52,0.00,,,0.00,858,Wunderground v.1.15,2013-06-30 17:35:00,
2013-06-30 12:45:00,75.4,54.9,29.93,North,355,1.0,1.0,49,0.00,,,0.00,861,Wunderground v.1.15,2013-06-30 17:45:00,
2013-06-30 12:55:00,75.7,54.6,29.93,NNW,330,1.0,2.0,48,0.00,,,0.00,831,Wunderground v.1.15,2013-06-30 17:55:00,
2013-06-30 13:04:00,76.0,54.9,29.93,NNW,339,1.0,4.0,48,0.00,,,0.00,856,Wunderground v.1.15,2013-06-30 18:04:00,
2013-06-30 13:15:00,76.1,55.0,29.92,North,350,1.0,1.0,48,0.00,,,0.00,851,Wunderground v.1.15,2013-06-30 18:15:00,
2013-06-30 13:25:00,77.0,52.1,29.92,North,355,1.0,1.0,42,0.00,,,0.00,881,Wunderground v.1.15,2013-06-30 18:25:00,
2013-06-30 13:34:00,77.5,51.9,29.92,North,350,0.0,0.0,41,0.00,,,0.00,884,Wunderground v.1.15,2013-06-30 18:34:00,
2013-06-30 13:44:00,77.3,51.8,29.92,North,360,0.0,0.0,41,0.00,,,0.00,868,Wunderground v.1.15,2013-06-30 18:44:00,
2013-06-30 13:50:00,77.4,51.9,29.92,North,5,0.0,0.0,41,0.00,,,0.00,889,Wunderground v.1.15,2013-06-30 18:50:00,
2013-06-30 13:55:00,78.2,53.2,29.92,NNW,348,0.0,0.0,42,0.00,,,0.00,925,Wunderground v.1.15,2013-06-30 18:55:00,
2013-06-30 14:04:00,78.5,52.8,29.92,NNE,15,0.0,0.0,41,0.00,,,0.00,900,Wunderground v.1.15,2013-06-30 19:04:00,
2013-06-30 14:14:00,78.7,53.7,29.92,ENE,60,0.0,0.0,42,0.00,,,0.00,930,Wunderground v.1.15,2013-06-30 19:14:00,
2013-06-30 14:25:00,78.6,54.2,29.92,NNE,32,0.0,1.0,43,0.00,,,0.00,918,Wunderground v.1.15,2013-06-30 19:25:00,
2013-06-30 14:35:00,81.3,57.9,29.92,ENE,71,0.0,0.0,45,0.07,,,0.04,93,Wunderground v.1.15,2013-06-30 19:35:00,
2013-06-30 14:44:00,82.1,58.0,29.92,ENE,71,0.0,0.0,44,0.00,,,0.04,97,Wunderground v.1.15,2013-06-30 19:44:00,
2013-06-30 14:54:00,79.7,56.5,29.92,NE,55,0.0,0.0,45,0.00,,,0.04,854,Wunderground v.1.15,2013-06-30 19:54:00,
2013-06-30 15:00:00,80.0,56.1,29.92,WNW,294,0.0,0.0,44,0.00,,,0.04,851,Wunderground v.1.15,2013-06-30 20:00:00,
2013-06-30 15:09:00,79.9,56.7,29.92,NNE,33,0.0,0.0,45,0.00,,,0.04,817,Wunderground v.1.15,2013-06-30 20:09:00,
2013-06-30 15:19:00,79.3,55.5,29.91,West,263,0.0,0.0,44,0.00,,,0.04,817,Wunderground v.1.15,2013-06-30 20:19:00,
2013-06-30 15:24:00,79.6,55.8,29.91,NNE,33,0.0,0.0,44,0.00,,,0.04,805,Wunderground v.1.15,2013-06-30 20:24:00,
2013-06-30 15:35:00,80.1,56.8,29.91,NNW,338,0.0,0.0,45,0.00,,,0.04,809,Wunderground v.1.15,2013-06-30 20:35:00,
2013-06-30 15:44:00,79.5,55.7,29.91,East,82,0.0,0.0,44,0.00,,,0.04,752,Wunderground v.1.15,2013-06-30 20:44:00,
2013-06-30 15:54:00,80.3,55.8,29.91,ESE,109,0.0,0.0,43,0.00,,,0.04,754,Wunderground v.1.15,2013-06-30 20:54:00,
2013-06-30 15:59:00,80.6,56.0,29.91,ESE,111,0.0,0.0,43,0.00,,,0.04,729,Wunderground v.1.15,2013-06-30 20:59:00,
2013-06-30 16:05:00,80.3,55.1,29.91,ESE,112,0.0,0.0,42,0.00,,,0.04,733,Wunderground v.1.15,2013-06-30 21:05:00,
2013-06-30 16:10:00,80.6,55.4,29.91,NW,308,0.0,0.0,42,0.00,,,0.04,693,Wunderground v.1.15,2013-06-30 21:10:00,
2013-06-30 16:19:00,80.5,54.0,29.91,ESE,109,0.0,0.0,40,0.00,,,0.04,141,Wunderground v.1.15,2013-06-30 21:19:00,
2013-06-30 16:24:00,79.9,54.8,29.91,ESE,105,0.0,0.0,42,0.00,,,0.04,158,Wunderground v.1.15,2013-06-30 21:24:00,
2013-06-30 16:35:00,80.7,55.5,29.91,SSW,194,0.0,0.0,42,0.00,,,0.04,137,Wunderground v.1.15,2013-06-30 21:35:00,
2013-06-30 16:45:00,79.9,55.4,29.91,WNW,290,0.0,0.0,43,0.00,,,0.04,156,Wunderground v.1.15,2013-06-30 21:45:00,
2013-06-30 16:49:00,79.7,54.6,29.91,WNW,302,0.0,0.0,42,0.00,,,0.04,167,Wunderground v.1.15,2013-06-30 21:49:00,
2013-06-30 16:59:00,78.5,55.4,29.91,NW,309,0.0,0.0,45,0.00,,,0.04,123,Wunderground v.1.15,2013-06-30 21:59:00,
2013-06-30 17:05:00,78.9,55.1,29.91,NNW,344,0.0,0.0,44,0.00,,,0.04,165,Wunderground v.1.15,2013-06-30 22:05:00,
2013-06-30 17:15:00,79.2,56.6,29.91,ENE,59,0.0,0.0,46,0.00,,,0.04,192,Wunderground v.1.15,2013-06-30 22:15:00,
2013-06-30 17:24:00,79.3,55.5,29.91,East,94,0.0,0.0,44,0.00,,,0.04,132,Wunderground v.1.15,2013-06-30 22:24:00,
2013-06-30 17:34:00,78.9,55.1,29.91,ESE,103,0.0,0.0,44,0.00,,,0.04,113,Wunderground v.1.15,2013-06-30 22:34:00,
2013-06-30 17:40:00,78.6,54.9,29.91,ESE,102,0.0,0.0,44,0.00,,,0.04,155,Wunderground v.1.15,2013-06-30 22:40:00,
2013-06-30 17:50:00,78.9,54.5,29.91,West,269,0.0,0.0,43,0.00,,,0.04,98,Wunderground v.1.15,2013-06-30 22:50:00,
2013-06-30 18:00:00,78.4,54.0,29.91,West,271,0.0,0.0,43,0.00,,,0.04,125,Wunderground v.1.15,2013-06-30 23:00:00,
2013-06-30 18:09:00,77.9,54.2,29.91,West,271,0.0,0.0,44,0.00,,,0.04,79,Wunderground v.1.15,2013-06-30 23:09:00,
2013-06-30 18:14:00,77.2,53.6,29.91,West,272,0.0,0.0,44,0.00,,,0.04,83,Wunderground v.1.15,2013-06-30 23:14:00,
2013-06-30 18:20:00,77.6,54.0,29.91,West,262,0.0,0.0,44,0.00,,,0.04,76,Wunderground v.1.15,2013-06-30 23:20:00,
2013-06-30 18:30:00,77.4,53.8,29.92,West,263,0.0,0.0,44,0.00,,,0.04,93,Wunderground v.1.15,2013-06-30 23:30:00,
2013-06-30 18:39:00,77.7,55.3,29.92,West,264,0.0,0.0,46,0.00,,,0.04,123,Wunderground v.1.15,2013-06-30 23:39:00,
2013-06-30 18:49:00,78.8,55.0,29.92,West,268,0.0,0.0,44,0.00,,,0.04,123,Wunderground v.1.15,2013-06-30 23:49:00,
2013-06-30 19:00:00,78.5,54.8,29.92,NE,41,0.0,0.0,44,0.00,,,0.04,67,Wunderground v.1.15,2013-07-01 00:00:00,
2013-06-30 19:10:00,78.0,54.3,29.92,NE,41,0.0,0.0,44,0.00,,,0.04,69,Wunderground v.1.15,2013-07-01 00:10:00,
2013-06-30 19:19:00,77.8,54.1,29.92,NE,41,0.0,0.0,44,0.00,,,0.04,60,Wunderground v.1.15,2013-07-01 00:19:00,
2013-06-30 19:29:00,77.7,53.4,29.92,NNW,337,0.0,0.0,43,0.00,,,0.04,72,Wunderground v.1.15,2013-07-01 00:29:00,
2013-06-30 19:35:00,77.4,52.5,29.92,NNW,337,0.0,0.0,42,0.00,,,0.04,79,Wunderground v.1.15,2013-07-01 00:35:00,
2013-06-30 19:45:00,77.1,52.2,29.92,NNW,337,0.0,0.0,42,0.00,,,0.04,42,Wunderground v.1.15,2013-07-01 00:45:00,
2013-06-30 19:54:00,76.6,51.1,29.92,NNW,337,0.0,0.0,41,0.00,,,0.04,33,Wunderground v.1.15,2013-07-01 00:54:00,
2013-06-30 20:05:00,76.0,51.9,29.92,NNW,337,0.0,0.0,43,0.00,,,0.04,26,Wunderground v.1.15,2013-07-01 01:05:00,
2013-06-30 20:15:00,75.6,52.1,29.92,NNW,338,0.0,0.0,44,0.00,,,0.04,21,Wunderground v.1.15,2013-07-01 01:15:00,
2013-06-30 20:19:00,75.4,52.0,29.92,NNW,338,0.0,0.0,44,0.00,,,0.04,18,Wunderground v.1.15,2013-07-01 01:19:00,
2013-06-30 20:29:00,75.0,51.6,29.92,NNW,338,0.0,0.0,44,0.00,,,0.04,12,Wunderground v.1.15,2013-07-01 01:29:00,
2013-06-30 20:35:00,74.9,52.7,29.92,NNW,338,0.0,0.0,46,0.00,,,0.04,11,Wunderground v.1.15,2013-07-01 01:35:00,
2013-06-30 20:45:00,74.5,52.9,29.93,NNW,338,0.0,0.0,47,0.00,,,0.04,5,Wunderground v.1.15,2013-07-01 01:45:00,
2013-06-30 20:54:00,74.0,52.5,29.93,NNW,338,0.0,0.0,47,0.00,,,0.04,0,Wunderground v.1.15,2013-07-01 01:54:00,
2013-06-30 20:59:00,73.6,52.7,29.93,NNW,338,0.0,0.0,48,0.00,,,0.04,0,Wunderground v.1.15,2013-07-01 01:59:00,
2013-06-30 21:10:00,73.0,52.1,29.93,NNW,338,0.0,0.0,48,0.00,,,0.04,0,Wunderground v.1.15,2013-07-01 02:10:00,
2013-06-30 21:20:00,72.4,52.2,29.93,NNW,338,0.0,0.0,49,0.00,,,0.04,0,Wunderground v.1.15,2013-07-01 02:20:00,
2013-06-30 21:25:00,72.2,52.5,29.93,NNW,338,0.0,0.0,50,0.00,,,0.04,0,Wunderground v.1.15,2013-07-01 02:25:00,
2013-06-30 21:30:00,72.0,52.3,29.94,NNW,338,0.0,0.0,50,0.00,,,0.04,0,Wunderground v.1.15,2013-07-01 02:30:00,
2013-06-30 21:39:00,71.5,52.4,29.94,NNW,338,0.0,0.0,51,0.00,,,0.04,0,Wunderground v.1.15,2013-07-01 02:39:00,
2013-06-30 21:49:00,71.1,52.0,29.94,NNW,338,0.0,0.0,51,0.00,,,0.04,0,Wunderground v.1.15,2013-07-01 02:49:00,
2013-06-30 22:00:00,70.0,52.1,29.95,NNW,338,0.0,0.0,53,0.00,,,0.04,0,Wunderground v.1.15,2013-07-01 03:00:00,
2013-06-30 22:10:00,69.4,52.5,29.95,NNW,338,0.0,0.0,55,0.00,,,0.04,0,Wunderground v.1.15,2013-07-01 03:10:00,
2013-06-30 22:19:00,69.0,53.1,29.96,NNW,338,0.0,0.0,57,0.00,,,0.04,0,Wunderground v.1.15,2013-07-01 03:19:00,
2013-06-30 22:29:00,68.6,53.2,29.96,NNW,338,0.0,0.0,58,0.00,,,0.04,0,Wunderground v.1.15,2013-07-01 03:29:00,
2013-06-30 22:40:00,68.4,53.5,29.96,NNW,338,0.0,0.0,59,0.00,,,0.04,0,Wunderground v.1.15,2013-07-01 03:40:00,
2013-06-30 22:45:00,68.2,53.8,29.96,NNW,338,0.0,0.0,60,0.00,,,0.04,0,Wunderground v.1.15,2013-07-01 03:45:00,
2013-06-30 22:54:00,67.6,53.7,29.96,NNW,338,0.0,0.0,61,0.00,,,0.04,0,Wunderground v.1.15,2013-07-01 03:54:00,
2013-06-30 22:59:00,67.3,53.4,29.96,NNW,338,0.0,0.0,61,0.00,,,0.04,0,Wunderground v.1.15,2013-07-01 03:59:00,
2013-06-30 23:04:00,67.1,53.6,29.96,NNW,338,0.0,0.0,62,0.00,,,0.04,0,Wunderground v.1.15,2013-07-01 04:04:00,
2013-06-30 23:15:00,67.0,53.5,29.96,NNW,338,0.0,0.0,62,0.00,,,0.04,0,Wunderground v.1.15,2013-07-01 04:15:00,
2013-06-30 23:20:00,66.9,53.9,29.96,NNW,338,0.0,0.0,63,0.00,,,0.04,0,Wunderground v.1.15,2013-07-01 04:20:00,
2013-06-30 23:25:00,66.7,54.1,29.96,NNW,338,0.0,0.0,64,0.00,,,0.04,0,Wunderground v.1.15,2013-07-01 04:25:00,
2013-06-30 23:29:00,66.7,54.1,29.97,NNW,338,0.0,0.0,64,0.00,,,0.04,0,Wunderground v.1.15,2013-07-01 04:29:00,
2013-06-30 23:34:00,66.4,54.3,29.97,NNW,338,0.0,0.0,65,0.00,,,0.04,0,Wunderground v.1.15,2013-07-01 04:34:00,
2013-06-30 23:44:00,65.9,54.6,29.97,NNW,338,0.0,0.0,67,0.00,,,0.04,0,Wunderground v.1.15,2013-07-01 04:44:00,
2013-06-30 23:50:00,65.6,54.3,29.97,NNW,338,0.0,0.0,67,0.00,,,0.04,0,Wunderground v.1.15,2013-07-01 04:50:00,